Location: Maccacari
(45.1333°N, 11.1333°E)
Time: 08:28:51
(UTC+00:00)

USA 234 - Pass Details

Date: 18 September 2020
Orbit: 1102 x 1106 km, 123.0° (Epoch: 16 October)

Event Time Altitude Azimuth Distance (km) Brightness Sun altitude
Exits shadow 20:19:21 10° 48° (NE) 2,938 5.4 -30.1°
Maximum altitude 20:25:46 68° 328° (NNW) 1,185 3.5 -31.0°
Drops below altitude 10° 20:32:14 10° 247° (WSW) 2,960 5.8 -31.9°
Sets 20:34:43 0° 245° (WSW) 3,916 6.4 -32.2°
